GFSGL_prec_cloud_273.txt.gz
Cloud_Cover
100 73 100 100 100 32 0 0 0 0 0 0 0 0 0 0 0 1 5 15 18 5 1 0 0 1 5 14 28 27 4 0 5 6 5 4 6 5 5 5 5 5 14
60 8 100 100 100 65 4 0 0 0 0 0 0 0 0 0 0 0 0 0 0 2 18 5 1 1 0 3 5 5 85 65 5 22 95 37 45 100 99 49 5 5 18
0 84 100 99 22 38 1 5 2 0 0 0 0 0 0 0 0 0 0 0 0 0 0 0 2 5 5 4 2 45 47 100 100 92 28 83 98 100 100 100 99 93 86
0 17 90 100 52 61 64 1 4 5 0 0 0 0 0 0 0 0 0 0 0 0 0 0 1 4 4 5 12 3 4 27 63 100 96 81 74 92 99 47 91 79 32
0 0 79 100 100 100 100 27 0 0 3 5 0 0 0 0 0 0 0 0 0 0 0 0 0 0 0 1 4 40 59 3 5 89 100 97 100 100 62 57 53 7 23
0 0 0 64 95 100 64 99 100 5 0 0 3 0 0 0 0 0 0 0 0 0 0 0 0 0 0 2 82 100 99 96 85 17 100 100 100 100 60 25 31 40 100
0 0 0 0 23 89 19 17 5 72 77 1 0 0 3 28 0 0 0 0 0 0 0 0 0 3 0 0 25 74 100 100 100 100 100 100 99 100 96 70 74 100 92
0 0 0 0 0 0 2 0 22 100 100 100 80 98 38 5 1 0 0 0 0 0 0 0 3 1 0 0 0 0 19 82 100 100 100 91 99 95 83 97 98 13 5
0 0 0 0 0 5 2 1 0 53 100 100 100 100 100 100 91 21 90 100 94 81 91 100 98 95 58 16 29 94 5 2 43 43 100 96 93 76 99 71 8 70 100
0 0 0 0 0 22 16 9 1 0 20 12 100 100 100 100 100 100 100 100 100 100 100 100 100 100 100 100 100 100 100 12 3 5 100 69 71 89 88 27 9 29 91
0 0 0 0 12 28 0 23 31 16 38 53 100 100 100 100 100 100 100 100 100 100 100 100 100 100 100 100 93 100 100 84 28 7 78 100 100 100 92 16 21 52 41
0 0 0 0 15 49 52 42 42 2 46 25 89 43 100 100 100 100 100 100 100 100 100 100 100 100 100 100 100 100 100 100 100 19 63 24 76 54 60 85 58 95 89
63 33 40 17 43 44 97 56 46 18 7 5 34 99 100 100 100 100 100 100 100 100 100 100 100 100 100 100 100 100 100 100 100 100 100 100 98 100 97 79 96 88 73
100 100 100 100 89 100 98 95 60 46 60 59 79 84 100 100 100 100 100 100 100 100 100 100 100 100 100 95 100 100 100 100 100 100 100 100 100 100 100 100 100 100 99
100 100 100 100 100 100 100 100 100 100 100 100 99 77 100 100 100 100 100 100 100 100 100 100 100 100 100 100 100 100 100 100 100 100 100 100 100 100 100 100 100 100 100
100 100 100 100 100 100 100 100 100 100 100 100 100 100 100 100 100 100 100 100 100 100 100 99 100 100 100 100 100 100 100 100 100 100 100 100 100 100 100 100 100 100 100
100 100 100 96 100 100 100 100 100 100 100 100 100 100 100 100 100 100 100 100 100 100 100 100 61 91 100 100 100 100 100 100 100 100 100 100 100 100 100 100 100 100 100
100 100 100 100 100 100 88 99 94 100 100 100 100 100 100 100 100 100 100 94 89 92 85 90 98 100 100 100 100 100 100 100 100 100 100 100 100 100 100 100 100 100 100
100 100 100 100 100 100 100 100 100 100 100 98 100 100 93 100 100 100 100 100 100 99 98 66 78 81 100 100 100 100 98 100 100 100 100 100 100 100 100 100 100 100 100
100 100 100 100 100 100 100 46 31 100 100 100 100 100 100 100 100 100 100 100 100 100 99 100 90 100 95 80 96 99 99 100 100 100 100 100 100 100 100 100 100 100 100
100 100 100 100 100 100 100 100 97 100 100 100 100 100 100 100 100 100 100 100 100 100 100 100 100 69 32 100 100 100 100 100 100 100 100 100 100 100 100 100 100 100 100
100 100 100 100 100 100 100 100 100 100 100 100 100 100 100 100 100 100 100 96 100 99 100 100 100 100 18 51 87 88 100 100 100 100 100 100 100 100 100 100 96 100 100
100 100 100 100 100 100 100 100 100 100 100 100 100 100 100 100 100 100 98 82 80 96 27 53 51 99 100 100 75 37 26 72 100 100 100 100 100 100 7 62 96 100 100
100 100 100 100 100 100 100 100 100 100 100 100 100 100 100 100 56 54 38 7 5 5 8 68 100 100 49 21 86 100 98 26 40 100 100 82 98 96 48 6 7 68 100
90 59 100 100 100 100 100 100 100 100 100 100 100 100 100 91 15 40 65 64 54 5 5 5 15 26 5 5 16 71 94 100 100 49 62 100 99 98 100 94 100 12 76
100 100 100 100 100 100 100 100 100 100 100 100 100 100 100 100 100 89 68 72 83 88 71 42 5 5 5 12 1 3 4 6 4 5 24 58 81 84 72 76 73 100 100

GFSGL_prec_cloud_276.txt.gz
Cloud_Cover
100 100 100 96 100 99 55 54 100 34 0 0 0 0 0 0 0 0 0 0 0 0 0 0 2 5 4 4 6 38 33 6 6 5 3 6 5 5 5 5 6 21 5
0 1 15 100 100 100 97 74 91 100 100 5 0 0 0 0 0 0 0 0 0 0 0 5 3 0 0 4 5 32 5 6 6 24 5 48 9 5 10 16 37 44 56
0 0 0 6 100 100 100 100 100 100 99 12 0 0 0 0 0 0 0 0 0 0 0 0 0 0 5 5 0 4 6 12 62 92 50 17 45 48 5 34 86 98 86
0 0 0 0 23 100 100 98 100 100 100 100 39 0 0 0 0 0 0 0 0 0 0 0 0 0 0 3 1 3 4 5 4 6 7 72 94 100 91 11 5 5 97
0 0 0 0 0 46 100 100 100 98 100 100 87 91 0 0 0 0 0 0 0 0 0 0 0 0 0 0 0 1 3 6 16 20 19 5 9 83 70 71 21 73 95
0 0 0 0 0 0 33 100 100 100 100 100 100 100 8 0 0 0 0 0 0 0 0 0 0 0 0 0 0 0 10 18 20 92 100 100 99 16 32 20 44 5 6
0 0 0 0 0 0 0 25 97 100 100 90 97 100 100 100 100 74 92 99 42 30 3 0 0 0 0 0 6 19 5 9 57 74 28 98 89 65 96 38 9 6 79
0 0 0 0 0 0 0 0 4 90 96 86 90 100 100 100 100 100 100 100 100 100 100 82 87 61 60 39 84 84 24 15 6 17 6 96 100 100 100 96 67 98 58
0 0 0 0 0 0 0 0 0 2 7 27 100 58 100 100 100 100 100 100 100 100 100 97 100 100 100 100 100 100 99 97 93 58 65 41 6 12 81 82 25 21 49
0 0 0 0 0 0 0 0 0 30 41 18 100 57 100 100 100 100 100 100 100 100 100 100 100 100 100 100 100 100 100 87 100 100 100 99 85 53 31 49 36 99 85
0 0 0 0 0 0 0 0 0 60 45 72 87 51 98 100 100 100 100 100 100 100 100 100 100 100 100 100 100 100 100 100 100 100 100 100 97 100 78 20 6 88 88
43 58 33 10 0 0 26 25 8 98 100 100 87 80 64 100 100 100 100 100 100 100 100 100 100 100 100 100 100 100 100 100 95 100 96 100 100 100 100 76 33 69 36
97 100 100 100 23 66 100 100 100 99 100 100 95 74 100 100 100 100 100 100 100 100 100 100 100 100 100 100 100 100 100 100 100 100 100 100 100 100 100 100 99 100 100
100 100 100 96 81 100 100 100 100 87 100 100 100 100 100 100 100 100 100 100 100 100 100 79 100 100 100 100 100 100 100 100 100 100 100 100 100 100 100 100 100 100 100
100 100 100 100 99 100 100 100 100 100 100 100 100 100 100 100 100 100 100 100 100 100 100 100 100 100 100 100 100 100 100 100 100 100 100 100 100 100 100 100 100 100 100
100 100 100 100 100 100 100 100 100 100 100 100 100 98 100 100 100 100 100 100 100 100 100 100 95 98 90 100 100 100 100 100 100 100 100 100 100 100 100 100 100 100 100
100 100 100 100 100 100 100 100 100 100 100 100 100 100 100 100 100 100 100 100 100 100 100 100 95 85 100 100 100 100 100 100 100 100 88 100 100 100 100 100 100 100 100
100 100 100 100 100 100 100 100 100 100 100 100 100 100 100 100 100 100 100 100 100 100 100 100 100 100 100 97 99 100 100 100 100 100 100 100 100 100 100 100 100 100 100
100 100 100 100 100 100 100 100 100 100 100 100 100 100 100 100 100 100 100 100 100 100 100 100 100 97 92 90 99 100 100 100 96 100 100 100 100 100 100 100 100 100 100
100 100 100 100 100 100 100 100 100 99 100 100 100 100 82 100 100 100 100 100 100 100 100 100 100 100 100 84 99 100 97 100 100 80 96 100 100 100 100 100 100 100 100
100 100 100 100 100 100 100 100 100 100 100 100 100 100 100 100 100 100 100 100 100 100 100 97 100 100 100 100 100 100 88 100 100 100 100 100 96 96 100 100 100 100 100
100 100 100 100 100 100 100 100 100 100 100 100 100 100 100 100 100 100 100 100 100 100 100 100 100 100 100 100 100 100 100 100 98 100 68 100 20 67 94 100 100 100 100
100 100 100 100 100 100 100 100 100 100 100 100 100 100 100 100 100 100 100 100 100 100 100 100 100 100 100 98 70 18 19 10 16 100 100 100 100 100 100 100 100 100 100
100 100 100 100 100 99 77 86 68 99 100 100 100 100 100 100 100 100 100 100 100 100 100 100 100 100 100 76 61 5 47 80 5 18 100 100 100 100 100 100 100 100 95
100 87 100 100 90 79 89 64 89 99 98 100 100 100 87 100 100 100 100 100 93 100 100 100 100 80 9 48 12 5 4 5 4 92 29 97 100 100 98 100 100 98 58
100 100 76 94 100 100 100 100 100 76 99 100 100 100 100 100 100 100 100 100 100 100 100 100 100 100 5 5 5 5 1 5 7 2 2 5 5 20 5 5 28 75 74

GFSGL_prec_cloud_282.txt.gz
Cloud_Cover
99 84 10 0 45 92 100 100 71 100 88 80 20 1 2 2 0 0 3 0 0 0 0 0 1 8 49 4 5 5 10 21 41 35 5 5 3 0 0 3 5 5 5
44 5 17 5 0 0 58 23 59 96 95 100 100 90 8 25 46 4 4 0 0 0 0 0 0 0 3 1 5 5 8 63 6 5 5 5 5 5 5 5 47 5 5
4 3 1 1 0 0 0 16 98 100 100 98 100 98 100 71 81 4 5 0 21 16 0 0 0 0 0 0 0 0 3 69 100 84 9 26 6 4 5 5 9 5 6
0 0 0 0 0 0 0 0 1 100 100 100 30 100 100 100 100 100 41 5 100 63 60 3 0 0 0 0 0 0 0 0 14 48 25 14 5 3 0 1 5 4 4
0 0 0 0 0 0 0 0 0 24 100 100 98 64 75 53 100 100 99 95 100 98 100 100 0 0 0 0 0 0 0 3 19 39 25 0 0 5 5 1 6 5 5
0 0 0 0 0 0 0 0 0 0 0 47 100 37 1 99 40 99 100 89 81 100 100 100 99 100 74 80 100 100 75 0 0 5 55 96 9 5 84 17 5 5 7
0 0 0 0 2 0 0 0 0 2 0 0 0 0 0 0 72 65 25 99 100 100 100 100 100 98 100 100 100 100 100 100 93 33 38 100 100 20 95 99 28 3 0
0 0 0 0 0 1 15 0 0 0 0 0 0 0 0 0 0 3 32 61 100 100 100 100 100 100 100 100 100 100 100 100 100 100 100 66 88 82 97 53 27 4 4
0 0 0 0 0 0 0 0 0 0 0 0 0 0 0 0 0 86 100 85 100 100 100 100 100 100 100 100 100 100 100 100 100 100 100 100 100 100 100 100 99 72 99
24 7 2 11 26 44 48 44 17 0 0 0 0 0 0 0 0 98 100 100 100 100 100 100 100 100 100 100 100 100 100 100 96 59 100 100 100 100 100 100 100 100 83
100 100 100 79 18 5 15 90 100 97 80 71 52 3 0 0 0 0 97 100 100 100 100 100 100 100 100 100 100 100 100 100 96 100 90 87 94 99 100 99 99 100 85
97 100 100 100 100 98 53 90 100 100 100 100 100 100 29 0 2 3 81 98 100 100 100 99 100 100 100 100 100 100 100 98 92 98 100 100 100 92 100 100 100 100 100
100 100 100 100 100 100 100 100 100 100 100 100 100 100 84 48 64 80 79 100 100 100 100 79 97 100 100 100 100 100 100 100 100 100 100 100 91 99 100 99 100 100 96
100 100 100 100 100 100 100 100 100 100 100 100 100 100 98 98 34 58 100 100 100 100 100 100 97 99 100 99 100 100 100 100 100 100 100 100 100 100 100 100 100 100 100
100 100 100 100 100 100 100 100 100 100 100 100 100 100 100 97 99 61 98 100 100 100 100 100 100 100 100 100 100 100 100 99 100 100 100 92 100 88 100 100 100 100 100
100 100 100 100 100 100 100 100 100 100 100 100 100 90 99 100 100 100 100 100 100 100 100 100 100 100 100 100 100 100 84 100 100 100 95 100 99 99 94 96 100 100 100
100 100 100 100 100 100 100 100 100 100 100 100 100 100 100 100 100 100 100 100 100 100 100 100 100 100 100 67 92 98 100 100 100 100 100 96 100 100 72 100 100 100 100
100 100 100 100 100 100 100 100 100 100 100 100 100 100 100 100 100 100 100 100 100 100 100 100 100 100 100 100 100 100 100 100 99 100 65 100 99 100 100 100 100 100 100
100 94 94 100 100 100 100 100 100 100 100 100 100 100 100 100 100 100 100 100 100 100 100 100 100 100 100 100 100 100 100 100 100 100 100 100 99 100 100 100 100 100 100
100 100 100 100 100 100 100 100 100 100 100 100 100 100 100 100 100 100 100 100 100 100 100 100 100 96 83 32 72 98 100 100 100 100 99 100 100 100 100 100 100 100 100
98 100 100 100 100 100 100 100 100 100 100 100 100 100 100 100 100 100 100 100 100 100 93 65 55 83 100 100 100 100 100 100 100 100 100 100 100 100 100 100 100 100 100
100 100 100 100 100 100 100 100 100 100 100 100 100 100 100 100 100 100 100 100 100 100 100 100 100 100 100 100 100 100 100 100 100 100 100 100 84 87 87 98 100 100 89
99 100 100 100 100 100 100 100 100 100 100 100 100 100 100 100 100 100 100 100 100 100 100 100 100 100 100 100 100 100 94 92 86 58 75 100 99 94 100 100 100 100 98
100 100 80 100 100 100 100 100 100 100 100 100 100 100 100 100 100 100 100 100 100 100 100 100 100 100 100 100 100 100 100 100 100 100 99 100 100 94 94 100 100 100 100
100 100 100 29 94 100 100 100 100 100 100 100 100 100 100 100 100 100 100 100 100 100 100 100 100 100 100 100 100 100 100 100 100 100 100 87 100 100 100 90 100 100 100
51 96 100 100 99 34 61 98 100 100 100 100 100 100 100 90 56 99 100 100 100 100 100 100 100 100 100 100 100 100 100 100 100 100 98 99 100 100 100 100 100 100 99

GFSGL_prec_cloud_285.txt.gz
Cloud_Cover
100 90 74 88 92 64 8 63 73 60 37 46 32 53 87 96 88 76 20 1 4 5 2 0 0 0 0 3 2 3 4 5 3 100 44 19 5 0 0 4 3 0 1
100 100 100 100 98 53 5 5 23 5 32 86 95 98 90 50 100 95 93 63 42 4 0 0 0 0 0 0 5 5 5 5 5 1 62 66 32 6 0 0 5 5 5
100 100 53 54 86 94 100 99 100 88 0 2 1 81 100 100 100 91 88 100 87 93 55 83 64 0 0 0 0 0 0 1 4 3 3 2 5 5 2 2 0 5 28
100 100 100 88 16 8 6 32 24 80 9 3 1 2 5 85 66 97 100 100 100 100 100 85 49 100 84 0 0 0 0 0 7 0 0 0 0 3 6 5 0 3 3
87 100 100 85 74 63 15 1 4 0 0 5 5 0 0 0 76 99 45 76 89 70 99 99 98 100 100 86 2 0 0 0 0 0 4 0 0 0 0 3 4 4 4
50 5 7 0 0 0 5 5 2 13 44 12 8 0 0 0 0 80 100 5 8 88 83 85 84 100 100 100 100 100 88 88 8 0 0 0 0 0 30 98 27 5 4
0 0 0 0 0 0 0 0 0 10 39 42 38 34 1 0 0 5 41 99 3 1 20 52 95 96 100 100 100 100 100 100 100 100 100 21 14 3 4 6 7 62 17
0 0 0 0 0 0 0 0 0 0 0 0 0 0 0 0 0 0 32 38 55 3 0 62 100 100 85 100 100 100 100 100 100 100 100 100 100 100 100 100 95 94 79
29 29 17 6 13 0 0 0 0 0 0 0 1 0 0 0 0 0 0 2 6 69 72 4 79 100 100 100 100 100 100 100 100 100 99 100 100 100 98 100 100 100 100
5 2 36 23 20 24 17 37 61 66 34 20 23 18 0 0 0 0 0 0 0 33 61 24 93 100 100 68 72 100 100 100 100 96 100 100 100 98 82 64 96 100 70
24 98 100 100 86 100 100 100 100 100 100 100 94 98 100 20 0 0 0 0 0 0 0 4 63 100 100 100 95 100 100 100 100 100 100 100 100 100 79 92 14 30 35
9 93 100 100 100 100 100 100 100 100 100 100 100 100 100 100 10 0 0 0 0 0 0 13 16 100 100 100 100 98 100 100 100 100 100 100 100 88 83 98 98 81 82
6 100 100 100 100 100 100 100 100 100 100 100 100 100 100 70 0 0 0 0 11 54 1 4 89 100 100 100 100 90 100 94 100 100 100 100 100 84 56 89 99 41 81
5 88 100 100 100 100 100 100 100 100 100 100 100 100 100 100 95 1 0 44 94 68 99 88 100 100 100 100 100 100 100 100 100 100 100 100 100 100 99 55 65 100 93
13 69 65 100 100 100 100 100 100 100 100 100 100 100 100 100 100 88 74 98 100 100 100 100 100 100 100 100 100 100 100 100 100 100 100 100 100 100 100 100 91 98 100
30 76 90 100 100 100 100 100 100 100 66 100 100 100 100 100 100 89 98 100 100 100 100 100 100 100 100 100 100 100 100 100 100 100 92 100 100 100 100 91 82 92 99
66 76 80 82 100 100 100 100 100 100 100 100 100 100 100 100 86 94 99 100 100 100 100 100 100 100 100 100 100 100 100 100 100 100 100 87 70 100 100 100 100 100 100
76 99 100 100 100 100 100 100 100 100 100 100 100 100 100 100 100 100 100 100 100 100 100 100 100 100 100 100 100 100 100 100 99 89 46 37 40 60 96 98 100 100 100
100 100 100 100 100 100 100 100 100 100 100 100 100 100 100 100 100 100 100 100 100 100 100 100 100 100 100 100 100 100 100 100 96 100 100 100 59 88 100 100 100 100 100
100 100 100 100 100 100 100 100 100 100 100 100 100 100 100 100 100 100 100 100 100 100 100 100 100 100 100 100 100 100 100 99 100 100 100 100 100 97 63 100 100 100 100
100 100 100 100 100 100 100 100 100 100 100 100 100 100 100 100 100 100 100 100 100 100 100 100 100 100 100 100 100 100 100 100 100 100 100 100 100 100 100 100 92 100 100
100 100 100 100 100 100 100 100 100 100 100 100 100 100 100 100 100 100 100 100 100 100 100 100 100 100 100 100 100 100 100 100 100 100 100 100 100 100 100 100 96 96 78
100 100 100 100 100 100 100 100 100 100 100 100 100 100 100 100 100 100 100 100 100 100 100 100 100 100 100 100 100 100 100 100 100 100 82 92 94 83 99 100 96 88 99
100 100 100 100 100 100 100 100 100 100 100 100 100 100 100 100 100 100 100 100 100 100 100 100 100 100 100 100 100 100 100 100 100 100 100 100 77 65 90 98 86 86 97
6 50 100 100 100 100 100 100 100 100 100 100 100 100 100 100 100 100 100 100 100 100 100 100 100 100 100 100 100 100 100 100 100 92 84 100 84 88 87 48 84 100 99
5 5 11 66 99 100 100 100 98 100 100 99 36 87 100 100 100 100 100 100 100 100 100 100 96 100 100 100 100 100 100 100 100 100 100 100 100 100 98 99 70 93 100

GFSGL_prec_cloud_288.txt.gz
Cloud_Cover
100 100 100 89 99 55 100 100 100 100 91 27 36 60 18 63 89 12 100 52 20 16 36 21 6 6 0 0 3 5 7 8 2 5 0 0 0 0 0 0 3 0 0
96 100 100 100 100 100 100 100 100 96 98 100 100 99 9 5 1 3 39 100 100 100 67 92 7 35 0 0 0 0 0 19 18 0 24 0 0 0 0 0 0 0 0
100 100 100 100 100 100 97 100 99 100 63 100 97 41 6 27 5 5 4 15 59 20 8 68 100 100 87 22 0 0 16 4 0 1 0 4 0 0 0 2 2 0 0
99 100 100 100 100 100 100 95 100 100 100 62 61 46 5 5 99 6 4 94 98 84 16 13 96 100 100 100 59 1 0 1 0 0 0 0 0 5 0 0 1 0 2
52 79 64 92 95 100 100 87 50 38 5 74 37 28 2 2 1 58 12 0 58 61 67 42 54 53 100 100 100 100 14 4 5 1 0 0 0 0 0 0 0 1 5
0 0 0 0 0 25 100 100 96 8 6 2 60 58 8 4 3 0 5 3 0 0 1 17 19 3 4 100 100 100 100 5 6 5 75 5 1 0 0 0 0 0 0
5 3 0 0 0 0 0 0 7 53 17 6 24 16 0 0 0 0 0 0 0 0 1 0 0 0 0 49 100 100 100 100 100 100 100 97 13 24 0 0 41 20 100
0 0 0 0 0 0 0 0 0 13 25 28 14 16 28 4 2 0 2 9 0 0 0 2 0 0 0 1 30 98 100 100 100 100 100 100 100 77 32 15 99 100 100
0 0 0 1 9 5 0 6 0 5 6 9 54 11 29 0 2 11 13 21 0 0 0 0 0 0 0 4 39 27 100 100 100 93 100 100 100 100 100 100 100 100 100
0 6 0 0 0 52 12 55 31 96 100 100 83 78 90 1 11 0 12 6 0 0 0 0 0 0 0 4 8 66 100 100 100 100 100 100 100 100 97 88 100 88 100
4 7 42 7 4 7 64 88 66 100 100 100 100 100 99 99 89 49 3 28 15 0 0 0 0 0 0 0 35 65 100 87 100 100 100 100 100 100 99 100 100 100 100
0 0 20 0 1 45 78 100 99 100 100 100 100 100 100 100 100 100 98 62 13 24 0 0 0 0 0 87 75 36 100 100 100 100 100 100 100 100 59 93 100 100 100
0 2 0 4 5 22 97 68 100 100 100 100 100 100 100 100 100 100 100 26 16 39 27 0 0 0 100 76 95 43 79 100 100 100 100 100 100 100 100 82 100 91 59
2 3 3 0 5 5 19 100 100 100 100 100 100 100 100 100 100 100 100 63 23 0 2 6 0 1 0 11 63 97 100 100 98 100 99 100 71 97 100 100 100 100 95
54 44 5 28 80 64 6 21 83 100 100 100 100 100 100 100 100 100 100 96 64 81 100 100 100 100 100 91 100 100 100 98 100 93 92 100 100 100 99 100 100 100 100
100 76 5 24 94 77 9 5 50 86 100 100 100 100 100 100 100 100 100 100 96 90 100 100 100 100 100 100 100 100 100 100 100 100 100 100 100 100 99 92 98 100 100
14 98 12 99 100 100 100 100 100 100 100 100 100 100 100 100 100 100 100 100 100 96 100 100 100 100 100 100 100 100 100 100 100 100 100 100 100 99 38 86 74 90 100
17 97 100 100 100 100 100 100 100 100 100 100 100 100 100 100 100 100 100 100 100 100 100 100 100 100 100 100 100 100 100 100 100 100 100 100 100 100 94 95 98 99 100
80 100 100 100 100 100 100 100 100 100 100 100 100 100 100 100 100 100 100 100 100 100 100 100 100 100 100 100 100 100 100 100 100 100 100 100 100 100 100 89 72 98 100
92 100 100 100 100 100 100 100 100 100 100 100 100 100 100 100 100 100 100 100 100 100 100 100 100 100 100 100 100 100 100 100 100 100 100 100 100 100 95 86 97 64 59
100 100 100 100 100 100 100 100 100 100 100 100 100 100 100 100 100 100 100 100 100 100 100 100 100 100 100 100 100 100 100 100 100 100 100 100 100 100 100 100 100 100 100
100 100 100 100 100 100 100 100 100 100 100 100 100 100 100 100 100 100 100 100 100 100 100 100 100 100 100 100 100 100 100 100 100 100 100 100 100 100 100 100 100 100 100
96 100 100 100 100 100 100 100 100 100 100 100 100 100 100 100 100 100 100 100 100 100 100 100 100 100 100 100 100 100 100 100 100 100 100 100 100 100 100 100 100 100 100
98 100 100 100 100 98 98 46 100 100 100 100 100 100 100 100 100 100 100 100 100 100 100 100 100 100 100 100 100 100 100 100 100 100 100 100 100 100 100 100 100 77 63
96 100 100 100 100 100 68 100 78 94 100 100 100 100 100 100 100 100 100 100 100 100 100 100 100 100 100 100 100 100 100 100 100 100 100 100 100 100 100 100 99 98 97
5 28 29 18 67 30 50 7 18 26 5 55 100 100 100 100 100 100 100 100 100 100 100 100 100 100 100 100 100 100 100 100 100 100 100 98 87 100 92 93 100 65 61

GFSGL_prec_cloud_291.txt.gz
Cloud_Cover
75 99 100 100 100 100 100 100 100 100 100 100 73 99 100 54 1 0 0 2 5 12 98 85 41 5 5 0 2 24 81 14 3 0 0 0 3 5 2 0 0 0 0
80 100 100 100 89 100 100 100 100 100 100 100 97 99 100 88 100 57 5 19 4 0 0 6 56 96 99 88 58 38 10 3 12 37 0 0 0 0 0 0 0 0 0
100 100 100 100 58 100 100 100 98 100 100 100 100 100 100 99 78 84 94 44 5 0 1 0 0 9 100 100 100 100 92 48 54 9 0 0 0 0 1 24 0 1 0
100 92 100 100 100 100 100 100 100 100 100 100 99 65 45 94 72 86 5 5 5 5 3 0 31 4 11 78 100 100 100 100 80 25 69 0 0 0 3 6 10 12 0
100 100 100 28 40 52 63 100 100 97 100 98 100 100 100 69 40 37 40 4 4 5 1 0 2 1 0 5 14 100 100 100 100 100 9 4 0 1 70 53 66 45 98
63 99 70 22 5 3 1 37 100 100 78 100 100 80 38 69 97 51 3 2 1 5 2 5 5 5 5 6 0 5 95 100 100 100 100 95 28 2 14 5 34 4 28
0 0 0 0 0 0 0 0 6 85 100 100 100 97 98 99 27 4 2 0 0 0 0 58 5 4 3 6 32 11 5 75 100 100 100 100 86 2 34 80 19 7 1
0 0 0 0 0 0 0 0 0 16 63 88 69 2 8 27 100 96 49 32 0 0 0 1 0 4 4 1 2 0 0 5 40 100 100 100 98 100 90 97 97 100 84
0 0 0 0 0 0 0 0 1 0 1 0 27 16 55 55 41 9 57 74 21 2 0 0 0 2 0 0 0 0 5 0 3 30 100 100 100 100 97 46 100 100 100
1 0 0 0 0 2 9 18 0 46 29 0 16 100 100 100 100 100 89 100 100 43 0 3 0 0 2 0 0 0 0 2 0 0 10 100 100 100 100 100 100 96 100
0 0 0 0 0 5 0 1 9 9 4 1 57 100 100 100 98 96 100 100 96 86 72 8 0 0 0 0 0 0 0 0 0 0 0 7 95 100 100 99 100 74 100
0 5 24 16 9 54 1 0 5 2 88 78 89 100 100 100 100 100 100 84 99 100 100 100 15 1 0 0 0 0 0 0 0 0 1 54 33 52 100 100 100 94 75
5 5 0 0 19 69 72 27 66 37 17 100 100 100 100 100 100 100 100 100 100 100 100 100 98 1 0 0 2 21 57 0 0 69 93 100 100 26 100 97 100 100 54
0 0 0 1 100 100 48 57 40 51 14 100 100 100 100 100 100 100 100 100 100 100 26 4 3 12 5 0 0 0 0 0 7 92 100 100 73 47 100 34 50 100 100
0 0 5 53 48 88 79 13 66 82 35 99 100 100 100 100 100 100 100 100 100 100 34 100 100 100 100 33 0 0 0 1 87 100 100 91 62 88 92 59 42 37 64
0 5 9 5 8 66 82 100 96 100 41 100 100 100 100 100 100 100 100 100 95 59 68 89 100 100 100 100 99 89 41 23 92 80 100 34 72 100 96 83 71 61 99
95 5 80 98 100 100 100 99 100 100 97 100 100 100 100 100 100 100 100 100 100 100 100 100 100 100 100 62 100 44 100 100 100 100 100 100 95 55 100 99 100 100 100
100 40 100 94 100 100 100 100 100 100 100 100 100 100 100 100 100 100 100 100 100 100 100 100 100 97 85 100 33 68 100 100 100 100 100 100 100 100 100 100 100 100 100
100 100 100 100 100 100 100 100 100 100 100 100 100 100 100 100 100 100 100 100 100 100 100 100 100 68 91 96 100 100 100 100 100 97 100 100 100 31 100 100 100 100 100
100 100 100 100 100 100 100 100 100 100 100 100 100 100 100 100 100 100 100 100 100 100 100 100 100 100 100 100 100 100 100 100 100 100 100 100 100 100 100 100 100 96 100
100 100 100 100 100 100 100 100 100 100 100 100 100 100 100 100 100 100 100 100 100 100 100 100 100 100 100 100 100 100 100 97 100 94 100 100 100 100 100 100 100 100 100
90 80 100 100 100 100 100 100 100 100 100 100 100 100 100 100 100 100 100 100 100 100 100 100 100 100 100 100 100 100 100 100 100 100 100 100 100 100 100 100 100 100 100
98 71 63 99 100 100 100 100 99 98 100 93 100 100 100 100 100 100 100 100 100 100 100 100 100 100 100 100 100 100 100 100 100 100 100 100 100 100 100 100 100 100 100
99 75 98 45 60 91 99 92 89 23 87 90 71 100 85 100 100 100 100 100 100 100 100 100 100 100 100 100 100 100 100 100 100 100 100 100 100 100 100 100 100 100 100
54 62 94 99 100 98 60 65 96 18 43 91 73 96 48 84 99 100 100 100 100 100 100 100 100 100 100 100 100 100 100 100 100 100 100 100 100 100 100 100 100 100 100
5 77 63 35 75 90 79 5 5 48 38 80 48 94 95 72 25 98 100 99 100 100 100 100 100 100 100 100 100 100 100 100 100 100 100 100 100 100 100 100 100 100 100